Weather History for KCAG - May, 2013

Change the Weather History Date:

Saturday, May 4, 2013

  Actual Average Record
Temperature  
Mean Temperature 48 °F 47 °F  
Max Temperature 69 °F 64 °F 82 °F (2000)
Min Temperature 26 °F 31 °F 26 °F (2013)
Degree Days  
Heating Degree Days 17 18  
Month to date heating degree days 100 73  
Since 1 July heating degree days 8234 8085  
Cooling Degree Days 0 0  
Month to date cooling degree days 0 0  
Year to date cooling degree days 0 0  
Moisture  
Dew Point 22 °F    
Average Humidity 43    
Maximum Humidity 75    
Minimum Humidity 11    
Precipitation  
Precipitation 0.00 in 0.06 in 0.50 in (2007)
Month to date precipitation T 0.24  
Year to date precipitation 3.94 4.89  
Sea Level Pressure  
Sea Level Pressure 29.90 in    
Wind  
Wind Speed 6 mph (NNE)    
Max Wind Speed 28 mph    
Max Gust Speed 39 mph    
Visibility 10 miles    
Events      
T = Trace of Precipitation, MM = Missing Value Source: NWS Daily Summary

Daily Weather History Graph

Daily Weather History Graph

Search for Another Location

Airport or City:

Trip Planner

Search our weather history database for the weather conditions in past years. The results will help you decide how hot, cold, wet, or windy it might be!

Date:

Astronomy

May. 04, 2013 Rise Set
Actual Time 6:05 AM MDT 8:09 PM MDT
Civil Twilight 5:35 AM MDT 8:39 PM MDT
Nautical Twilight 4:58 AM MDT 9:15 PM MDT
Astronomical Twilight 4:18 AM MDT 9:55 PM MDT
Moon 3:06 AM MDT (5/4) 3:09 PM MDT (5/4)
Length of Visible Light 15h 04m
Length of Day
14h 04m
Waning Crescent, 26% of the Moon is Illuminated
May 4
Waning Crescent
May 9
New
May 17
First Quarter
May 24
Full
May 31
Last Quarter

Hourly Weather History & Observations

Time (MDT) Temp. Windchill Dew Point Humidity Pressure Visibility Wind Dir Wind Speed Gust Speed Precip Events Conditions
12:53 AM 39.9 °F - 21.9 °F 49% 29.94 in 10.0 mi Calm Calm - N/A   Clear
1:53 AM 33.1 °F 30.0 °F 24.1 °F 70% 29.94 in 10.0 mi West 3.5 mph - N/A   Clear
2:53 AM 33.1 °F - 23.0 °F 66% 29.93 in 10.0 mi Calm Calm - N/A   Clear
3:53 AM 30.9 °F - 21.0 °F 67% 29.94 in 10.0 mi Calm Calm - N/A   Clear
4:53 AM 28.9 °F - 19.9 °F 69% 29.94 in 10.0 mi Calm Calm - N/A   Clear
5:53 AM 27.0 °F 21.6 °F 19.9 °F 75% 29.95 in 10.0 mi WSW 4.6 mph - N/A   Clear
6:53 AM 30.9 °F 27.5 °F 23.0 °F 72% 29.96 in 10.0 mi SW 3.5 mph - N/A   Clear
7:53 AM 39.0 °F - 26.1 °F 60% 29.94 in 10.0 mi Calm Calm - N/A   Scattered Clouds
8:53 AM 46.9 °F - 26.1 °F 44% 29.94 in 10.0 mi WNW 4.6 mph - N/A   Clear
9:53 AM 55.0 °F - 27.0 °F 34% 29.91 in 10.0 mi Calm Calm - N/A   Clear
10:53 AM 61.0 °F - 19.9 °F 21% 29.89 in 10.0 mi Calm Calm - N/A   Clear
11:53 AM 63.0 °F - 19.9 °F 19% 29.88 in 10.0 mi NW 4.6 mph - N/A   Clear
12:53 PM 64.9 °F - 17.1 °F 16% 29.86 in 10.0 mi North 5.8 mph - N/A   Clear
1:53 PM 66.0 °F - 12.0 °F 12% 29.86 in 10.0 mi NNW 8.1 mph - N/A   Clear
2:53 PM 68.0 °F - 12.0 °F 11% 29.84 in 10.0 mi NW 9.2 mph - N/A   Partly Cloudy
3:53 PM 66.9 °F - 15.1 °F 14% 29.84 in 10.0 mi WSW 12.7 mph 19.6 mph N/A   Clear
4:42 PM 62.6 °F - 15.8 °F 16% 29.95 in 10.0 mi North 11.5 mph 39.1 mph N/A   Mostly Cloudy
4:49 PM 62.6 °F - 14.0 °F 15% 29.93 in 10.0 mi NE 9.2 mph 24.2 mph N/A   Mostly Cloudy
4:53 PM 63.0 °F - 15.1 °F 16% 29.87 in 10.0 mi SE 8.1 mph 18.4 mph N/A   Mostly Cloudy
5:53 PM 61.0 °F - 21.0 °F 21% 29.89 in 10.0 mi East 15.0 mph - N/A   Clear
6:53 PM 59.0 °F - 21.9 °F 24% 29.91 in 10.0 mi Calm Calm - N/A   Overcast
7:53 PM 57.9 °F - 23.0 °F 26% 29.90 in 10.0 mi ESE 4.6 mph - N/A   Scattered Clouds
8:53 PM 55.9 °F - 26.1 °F 32% 29.90 in 10.0 mi ESE 10.4 mph - N/A   Overcast
9:53 PM 52.0 °F - 28.9 °F 41% 29.89 in 10.0 mi East 13.8 mph - N/A   Clear
10:53 PM 50.0 °F - 30.0 °F 46% 29.87 in 10.0 mi East 12.7 mph - N/A   Clear
11:53 PM 48.9 °F - 30.0 °F 48% 29.88 in 10.0 mi ESE 11.5 mph - N/A   Clear